Location: Newark
(43.9494°N, 6.8108°E)
Time: 05:33:21
(UTC+00:00)

Courier 1B Rocket - Visible Passes

Search period start: 17 October 2019 00:00
Search period end: 27 October 2019 00:00
Orbit: 920 x 1202 km, 28.2° (Epoch: 16 October)

Date Brightness Start Highest point End Pass type
(mag) Time Alt. Az. Time Alt. Az. Time Alt. Az.
17 Oct 7.0 04:23:13 10° SSW 04:26:48 16° SSE 04:30:30 10° SE visible
18 Oct 7.0 03:24:35 12° S 03:26:11 13° SSE 03:28:48 10° SE visible
18 Oct 6.9 05:14:08 10° SW 05:18:26 19° S 05:22:52 10° SE visible
19 Oct 6.8 04:13:52 10° SSW 04:17:45 18° S 04:21:49 10° SE visible
20 Oct 6.8 03:16:44 15° S 03:17:06 15° SSE 03:20:36 10° SE visible
20 Oct 6.8 05:05:11 10° SW 05:09:24 19° S 05:13:43 10° SE visible
21 Oct 6.7 04:05:58 14° SSW 04:08:44 19° S 04:12:56 10° SE visible
22 Oct 6.8 03:08:48 17° SSE 03:08:48 17° SSE 03:12:01 10° SE visible
22 Oct 6.8 04:56:27 10° SW 05:00:22 17° S 05:04:22 10° SSE visible
23 Oct 6.6 03:58:01 16° SSW 03:59:43 18° S 04:03:50 10° SE visible
24 Oct 6.8 03:00:51 16° SSE 03:00:51 16° SSE 03:03:11 10° SE visible
24 Oct 6.8 04:47:59 10° SW 04:51:20 15° SSW 04:54:44 10° SSE visible
25 Oct 6.6 03:50:03 17° SSW 03:50:42 17° S 03:54:33 10° SSE visible
26 Oct 7.1 02:52:54 14° SSE 02:52:54 14° SSE 02:54:09 10° SE visible
26 Oct 6.9 04:40:01 10° SW 04:42:17 12° SSW 04:44:32 10° S visible
